Simultaneous Nadir Overpasses (SNOs) Predictions

Prediction of SNOs between METOP-A and METOP-B Satellite Orbit:

Table of predicted SNOs for the next 14.0 days since TLE Epoch: 11/27/2021
Index Date (METOP-A) Time (METOP-A) Lat,Lon (METOP-A) SZA (METOP-A ) Date (METOP-B) Time (METOP-B) Lat,Lon (METOP-B) SZA (METOP-B ) Distance(km) Time Diff (sec)
1 11/29/2021 09:55:17 -81.24,-105.10 74.64 11/29/2021 09:55:10 -81.24,-105.28 74.66 3.04 7
2 12/01/2021 21:03:24 -81.24, 87.81 74.28 12/01/2021 21:02:44 -81.24, 87.86 74.29 1.08 40
3 12/01/2021 21:52:39 81.25,-104.68 105.72 12/01/2021 21:53:24 81.25,-104.50 105.76 3.04 45
4 12/04/2021 08:11:37 -81.34, -81.77 74.14 12/04/2021 08:10:26 -81.15, -82.06 74.35 21.69 71
5 12/04/2021 09:00:54 81.24, 88.49 106.06 12/04/2021 09:00:58 81.25, 88.63 106.08 2.32 4
6 12/06/2021 20:09:09 81.24, -78.40 106.35 12/06/2021 20:08:32 81.25, -78.26 106.35 2.39 37
7 12/06/2021 20:58:11 -81.25, 89.08 73.67 12/06/2021 20:59:13 -81.25, 88.98 73.66 1.95 62



Historial Predications of SNOs between METOP-A and METOP-B
